{"data":{"norad_id":49055,"intl_designator":"2021-069A","name":"STAR ONE D2","alt_names":[],"object_type":"PAYLOAD","status":"ACTIVE","operator":null,"country":"BRAZ","launch_date":"2021-07-30","launch_site_code":"FRGUI","launch_vehicle":null,"mission":null,"orbit_class":"UNKNOWN","rcs_meters":null,"size_class":null,"mass_kg":null,"dimensions":null,"purposes":["comms"],"wikipedia_slug":null,"has_3d_model":false,"image_url":null,"decayed_at":null,"tle_current":{"epoch":"2026-05-24T10:29:14.459424Z","epoch_age_seconds":137886,"freshness":"FRESH","line1":"1 49055U 21069A   26144.43697291  .00000000  00000+0  00000+0 0  9997","line2":"2 49055   0.0101 303.2052 0001489 138.4492 247.6149  1.00265819 17705","mean_motion":1.00265819,"eccentricity":0.0001489,"inclination_deg":0.0101,"raan_deg":303.2052,"arg_perigee_deg":138.4492,"mean_anomaly_deg":247.6149,"bstar":0,"rev_number":1770,"period_min":1436.1823544273,"perigee_km":35781.988952858,"apogee_km":35794.546108127,"semimajor_km":42166.404530492,"source":"CELESTRAK","updated_at":"2026-05-25T13:38:14.100648Z"}}}